Helicity
35 24 18 19 12 -2 -2 -1 -8 9 25 21 29 27 19 29 35 60 71 46 55 51 67 81 109 112 117 128 130 124 132 84 90 88 114 130 122 80 71 49 59 41 33 53 103
36 20 10 5 -0 -2 -0 -4 -6 -8 -7 -0 19 14 20 35 78 150 85 59 44 37 51 72 93 121 129 136 143 138 108 76 94 96 95 97 86 68 62 82 37 52 53 70 80
29 21 11 5 -11 -15 -16 -11 -0 8 13 10 9 7 19 30 83 81 42 59 52 50 63 60 87 110 125 135 137 103 84 87 79 73 83 78 71 64 70 88 33 78 95 119 96
34 25 10 -9 -22 -18 -13 2 10 15 19 20 26 27 35 55 84 65 42 47 43 29 36 54 79 99 105 111 117 103 96 91 79 71 71 73 82 87 84 54 70 62 52 80 93
14 6 1 1 -5 -5 -8 -1 7 10 21 46 60 40 51 76 85 17 1 25 33 47 66 64 86 85 98 94 101 99 92 88 79 82 62 72 78 70 95 62 78 62 56 51 64
15 16 14 13 6 -2 -14 -11 2 13 29 59 49 48 62 81 13 -12 -5 12 38 43 54 67 63 71 91 93 94 76 75 72 82 94 74 66 70 83 72 96 83 58 44 28 40
26 28 24 15 -1 -3 -16 -16 3 7 24 33 53 68 80 79 -18 -15 17 25 22 26 47 45 48 72 69 78 76 80 104 96 81 104 67 28 76 52 97 75 66 45 39 31 59
28 26 22 14 10 12 -7 -19 5 -0 13 21 46 61 98 -17 -13 -2 8 21 22 44 55 48 58 71 81 71 96 92 102 116 92 103 58 65 90 63 58 70 49 52 69 62 72
31 29 22 20 18 20 6 -7 18 1 10 11 56 73 111 -16 8 2 22 41 30 49 53 46 49 70 71 89 100 124 93 103 99 80 54 84 71 73 62 61 37 41 64 88 101
31 25 24 26 19 35 28 39 35 38 33 39 48 77 49 56 12 18 23 34 53 45 58 69 76 83 80 90 58 66 82 70 74 56 83 60 51 97 97 43 50 72 72 86 113
25 25 27 27 21 49 46 57 56 54 84 66 90 101 71 23 22 39 28 39 45 69 72 63 90 75 64 65 75 70 60 53 82 58 49 43 46 134 84 99 103 77 66 73 116
30 31 29 27 15 53 70 76 67 71 86 77 95 91 25 20 42 48 40 61 58 66 68 77 72 59 70 71 72 63 52 52 51 44 24 41 90 52 100 113 97 62 67 70 115
33 41 40 34 21 55 65 66 64 63 102 96 93 99 46 30 39 49 59 58 69 66 65 77 81 85 71 76 65 58 67 67 40 48 46 24 31 82 112 121 125 141 73 99 141
38 50 57 47 44 33 47 45 59 57 105 119 133 99 78 35 56 54 49 60 63 60 62 54 57 73 95 82 88 51 60 54 48 52 36 59 50 96 146 147 134 99 129 115 154
49 55 65 70 44 41 41 45 50 52 85 76 103 59 71 61 57 75 60 69 61 64 78 77 96 103 108 86 105 66 67 69 79 89 107 99 115 24 105 122 123 107 132 165 152
54 66 63 72 68 48 56 59 48 102 61 75 77 75 74 70 77 90 84 62 54 67 72 58 64 85 95 116 99 85 87 104 109 109 112 82 99 49 99 108 169 202 176 189 155
63 77 71 76 59 68 66 69 102 115 88 74 82 87 78 79 85 87 80 67 74 89 100 88 94 85 101 118 93 106 90 72 78 101 81 116 114 45 73 159 225 234 238 217 155
91 95 97 85 92 97 96 121 131 97 91 110 131 140 88 81 95 86 87 72 88 121 116 119 102 97 94 112 99 84 83 88 72 109 144 213 81 45 111 218 260 278 262 183 125
143 136 104 92 114 127 154 170 97 77 118 158 191 134 109 103 93 78 72 91 86 103 130 143 108 102 136 116 104 91 100 87 152 167 177 116 98 95 171 236 246 245 164 117 117
156 124 90 119 136 181 199 146 121 128 169 167 118 118 107 87 100 79 74 96 128 126 124 124 142 119 100 107 134 113 110 129 139 119 75 152 158 78 148 118 174 142 148 122 113
170 156 106 172 206 242 198 129 111 156 185 150 122 167 128 104 109 97 110 135 156 168 139 132 134 98 122 111 107 133 140 174 173 185 175 159 118 204 154 208 198 152 158 109 138
192 208 115 194 257 242 211 162 148 160 207 183 157 177 142 127 127 107 110 145 126 149 177 137 142 109 86 137 152 151 126 171 199 139 221 272 288 139 218 221 240 173 56 104 135
246 275 197 238 252 253 221 218 182 202 183 160 171 180 168 145 135 116 134 134 150 164 161 109 138 105 110 110 108 92 118 207 250 257 330 356 295 285 234 199 204 91 98 111 125
281 254 240 245 223 202 244 215 220 199 216 223 199 215 198 169 174 126 121 132 110 130 132 151 182 178 145 115 134 149 161 186 286 323 321 505 378 290 256 223 160 112 120 125 115
326 259 183 226 226 207 229 163 292 243 266 258 236 182 180 184 202 142 191 190 155 150 193 176 154 171 110 122 166 157 174 243 369 297 331 238 246 204 265 171 132 122 135 119 114
370 331 281 205 210 168 233 222 201 324 297 265 203 120 170 172 120 110 197 164 150 203 236 200 172 141 117 83 106 104 119 175 187 149 207 187 143 191 139 150 180 151 162 147 121
418 365 264 130 180 189 203 246 207 281 176 181 194 240 159 74 181 193 144 139 132 166 215 205 168 147 94 99 89 74 136 52 167 204 233 240 223 185 175 186 177 161 144 156 131
Wind_Speed
52 54 55 56 55 56 57 57 54 52 48 41 38 41 40 38 35 35 40 41 44 46 42 37 37 32 28 28 30 30 38 40 39 36 36 39 41 37 41 39 42 38 40 46 60
53 54 55 55 56 56 58 56 49 43 43 40 37 33 34 34 34 41 44 44 46 42 35 35 35 32 31 31 34 33 38 39 36 34 37 43 42 43 41 47 40 45 44 51 57
54 55 56 56 57 58 57 53 42 37 36 34 32 29 30 33 37 39 44 46 44 39 33 32 32 31 33 33 36 35 40 35 35 37 43 48 47 42 43 42 42 51 56 57 54
56 57 58 58 57 58 56 53 46 40 39 36 31 29 29 32 43 34 45 46 43 39 35 35 33 33 34 36 37 39 36 38 39 41 46 48 46 45 40 39 43 49 52 54 49
56 57 58 59 58 58 56 53 47 42 39 39 34 31 31 37 33 35 42 43 40 38 36 33 35 35 37 36 37 41 41 41 41 49 43 40 44 44 48 46 49 49 53 47 49
57 58 58 59 58 58 56 53 45 41 38 37 34 30 33 36 31 35 39 38 38 36 36 35 32 31 33 36 38 38 41 45 42 39 39 42 44 41 40 37 42 49 55 45 46
58 59 59 60 58 58 55 50 43 38 37 37 36 31 36 32 32 33 37 39 39 34 34 35 32 32 31 36 35 38 45 42 35 38 41 43 50 39 40 41 49 56 54 45 46
59 60 60 60 59 58 55 46 37 35 36 37 34 32 33 30 31 33 32 37 39 37 36 34 32 30 33 30 37 39 39 43 38 43 39 43 49 40 40 51 62 66 53 46 44
59 60 60 61 60 60 55 40 33 34 35 36 32 31 30 29 29 31 32 34 36 37 39 35 34 33 33 34 39 41 44 45 49 37 45 42 55 47 50 67 74 68 59 52 40
59 60 61 62 61 60 47 36 37 36 34 35 33 31 26 26 29 31 31 33 34 35 33 37 36 35 35 36 47 43 46 46 51 46 49 66 76 70 66 71 69 60 48 38 34
57 59 60 63 59 55 40 36 38 37 36 32 32 30 24 26 29 31 33 34 35 36 38 39 38 37 36 31 35 38 44 50 53 58 56 57 75 84 75 53 51 47 43 33 34
55 58 60 61 55 49 39 38 37 35 33 33 28 26 25 25 29 27 33 33 35 35 36 41 43 35 33 34 36 43 50 56 53 45 61 66 84 71 42 37 45 43 35 32 36
54 56 59 59 46 44 39 36 35 33 34 25 24 23 26 26 30 25 30 33 34 33 34 36 35 30 37 37 41 47 51 53 55 61 55 68 57 43 38 45 42 40 33 35 42
53 54 56 53 43 41 41 35 32 33 36 26 17 23 26 30 31 31 31 33 33 33 34 31 33 33 32 36 35 54 41 47 58 65 64 55 65 45 43 46 44 40 38 41 47
51 51 49 43 42 43 38 32 29 34 47 23 19 22 25 31 31 33 34 34 32 33 34 35 31 33 35 33 28 40 47 54 53 55 56 48 50 45 45 46 46 43 42 47 52
49 47 44 42 41 39 33 28 32 37 43 22 22 18 22 31 32 31 33 35 35 36 35 32 35 36 33 38 34 42 46 52 45 45 52 42 45 54 44 43 43 44 43 49 57
48 43 42 36 43 29 28 33 40 37 28 25 21 19 25 28 29 28 31 34 36 41 39 41 39 36 34 36 39 43 52 54 52 51 51 38 54 44 43 39 38 42 47 56 68
46 40 41 40 28 24 31 40 46 35 27 27 25 24 29 25 28 28 32 35 31 32 40 44 44 38 39 38 41 43 40 45 60 58 58 49 49 47 43 34 35 41 50 60 71
42 46 45 37 26 28 38 48 47 38 28 23 28 32 30 24 26 29 31 34 30 24 37 41 42 41 40 39 37 37 43 39 47 50 58 44 47 50 33 35 36 48 59 72 81
53 51 52 28 24 30 47 56 49 37 30 28 31 27 26 21 23 26 29 29 31 30 32 36 46 41 39 36 39 34 29 44 45 58 66 57 58 50 46 37 37 58 75 84 93
54 60 43 29 29 46 61 56 51 42 35 32 34 31 29 28 25 30 33 32 27 31 29 32 38 41 40 35 33 33 36 38 39 41 58 76 62 48 50 40 46 63 85 94 85
57 70 39 31 53 57 64 52 46 41 37 38 35 32 29 25 32 32 35 35 23 25 34 32 37 42 37 35 35 34 33 30 42 48 46 60 74 46 41 40 62 74 88 85 80
63 60 44 44 72 70 59 55 50 43 40 37 36 35 34 31 40 33 33 31 22 25 31 23 38 50 43 39 34 30 30 32 39 45 51 60 65 44 43 49 73 93 91 88 80
59 70 58 59 62 63 61 59 54 44 41 38 37 34 34 38 37 38 35 32 23 27 27 24 35 35 41 43 36 39 39 36 35 51 57 55 66 63 65 74 83 87 83 78 79
60 73 61 73 79 67 57 55 54 51 43 37 42 40 37 43 42 44 36 33 32 30 29 35 48 36 39 44 45 44 44 41 44 48 58 64 67 65 68 76 78 76 70 72 73
67 71 60 68 61 59 64 66 56 48 37 46 44 34 35 42 41 39 31 34 39 31 31 38 53 48 56 52 47 49 44 43 41 44 54 57 63 57 64 61 66 64 67 70 73
63 60 63 67 66 61 69 65 58 43 45 41 35 37 39 38 34 37 30 30 31 31 29 38 43 55 60 53 60 65 41 34 42 41 46 59 58 64 66 65 63 65 66 70 72
Wind_Direction
322 323 321 321 318 320 325 333 344 353 2 11 14 5 3 7 10 359 341 335 330 321 319 318 320 317 317 313 313 309 299 296 297 297 299 304 303 307 310 306 308 314 314 316 314
320 319 318 316 318 323 336 349 3 10 9 15 21 29 29 32 22 358 351 346 339 333 327 321 315 315 310 309 308 302 298 298 303 305 303 304 305 305 307 306 308 310 318 317 318
322 322 321 319 321 328 342 358 19 27 27 27 31 41 45 35 7 0 352 341 341 347 347 331 322 315 307 307 304 303 296 301 303 308 306 302 303 307 306 307 312 309 310 314 321
325 324 323 323 326 332 342 356 13 23 22 27 38 46 42 26 348 23 356 341 334 341 339 331 324 312 307 302 305 300 304 303 304 306 304 303 306 306 307 309 315 314 314 316 320
323 325 325 327 328 332 338 354 8 17 23 27 44 49 41 17 15 15 359 355 351 349 340 333 320 314 304 308 306 301 303 304 305 302 307 311 307 307 305 305 309 314 315 321 320
321 323 327 328 329 332 336 348 6 17 29 34 36 47 33 18 30 16 6 11 2 359 351 346 333 334 320 313 307 310 306 302 306 309 312 310 310 312 313 317 314 315 314 321 321
319 323 326 328 328 329 333 347 4 15 24 27 27 45 31 40 38 30 19 16 8 11 3 353 348 336 331 315 320 315 305 307 309 312 313 317 308 309 313 311 311 315 317 321 321
318 322 324 324 326 327 326 346 6 10 12 16 26 33 32 53 43 35 25 16 17 15 16 12 9 356 338 338 324 313 312 303 310 310 318 319 305 313 316 311 310 310 315 318 319
319 321 323 323 324 325 323 348 3 2 4 4 18 25 35 37 42 33 21 16 13 6 7 14 5 357 350 332 316 315 302 304 305 316 313 315 305 310 314 310 305 308 311 314 316
318 320 322 322 321 323 336 348 350 352 356 2 5 11 27 36 36 37 38 32 24 9 14 2 359 354 347 333 306 308 306 309 307 315 312 300 286 301 308 310 309 316 319 320 322
315 319 321 320 321 327 344 348 344 348 345 351 354 357 25 30 28 25 19 20 20 11 358 356 350 346 345 350 338 326 316 311 312 310 310 308 297 294 307 314 320 327 330 332 330
313 316 318 319 322 334 345 339 342 347 353 344 350 358 3 18 12 18 14 16 13 8 6 355 348 350 347 345 339 323 315 311 316 324 315 310 299 308 325 332 331 331 336 337 335
309 313 316 317 329 334 340 342 348 349 353 356 348 348 348 360 1 13 13 12 8 8 12 4 6 17 348 338 328 320 318 317 316 317 321 314 317 328 334 334 340 344 345 342 337
304 310 315 320 323 328 329 343 351 345 342 347 3 339 341 349 348 356 3 6 2 3 7 11 12 11 11 350 342 318 334 328 320 316 314 330 311 326 327 333 336 342 344 341 339
299 306 315 324 318 319 330 347 356 339 325 1 5 350 341 342 348 347 351 358 358 357 358 1 5 3 358 359 5 342 334 326 325 323 323 328 322 328 329 329 335 338 341 342 340
294 301 310 313 315 319 334 347 335 327 317 347 357 2 353 341 341 347 348 353 354 349 350 349 354 354 358 354 354 345 340 333 336 335 325 334 332 329 333 336 341 343 348 347 344
288 295 302 311 304 326 329 321 312 309 331 332 339 347 345 344 344 346 345 346 346 344 346 344 345 350 356 352 351 348 340 331 329 330 329 342 331 332 338 343 345 347 348 348 347
282 289 295 299 312 320 312 302 295 310 312 326 333 334 333 344 344 348 345 342 348 346 341 339 338 345 347 347 346 346 348 339 323 328 329 335 331 340 346 347 350 353 349 345 342
277 281 286 289 299 301 292 285 294 301 308 310 322 319 323 332 340 343 341 340 347 352 341 339 336 338 341 345 349 347 340 346 336 336 330 337 338 335 340 344 346 344 342 339 339
270 275 277 278 286 288 279 280 289 298 306 305 305 316 316 326 335 342 344 352 347 348 345 339 333 338 337 343 342 341 355 339 341 332 328 332 333 337 344 339 336 338 339 338 338
264 267 275 270 276 272 270 279 286 289 294 298 300 305 311 318 323 330 335 344 348 350 353 348 339 338 339 338 338 344 339 343 344 340 332 327 335 343 343 344 344 340 339 338 339
258 259 264 259 260 267 267 277 285 284 288 294 301 303 302 308 317 322 325 332 352 354 342 346 344 335 337 342 342 339 339 340 335 334 332 329 328 346 347 347 342 338 338 337 338
254 257 263 259 257 259 270 274 277 280 279 287 291 297 305 305 311 317 326 338 343 343 343 354 339 333 337 341 341 338 336 333 333 331 321 326 329 348 342 335 333 332 334 336 337
249 252 257 255 263 262 261 268 270 277 279 284 291 296 299 301 309 315 317 332 338 334 342 350 334 328 325 330 337 330 328 325 319 320 319 309 311 318 320 322 328 331 333 336 338
246 253 255 253 253 256 260 267 262 270 277 277 285 284 289 298 301 303 312 323 328 328 329 329 324 322 318 319 319 316 313 310 303 304 308 314 315 316 323 326 329 332 336 337 339
243 248 253 259 260 249 254 259 261 267 266 272 277 279 284 294 298 306 312 315 319 323 318 322 320 326 321 319 316 313 309 306 303 304 303 303 308 311 325 332 333 334 336 336 336
244 251 249 255 255 253 257 257 260 261 270 279 268 283 282 289 300 316 321 324 326 324 314 320 322 323 320 327 325 321 328 321 323 322 322 321 324 331 331 333 334 335 335 334 333